| time (UTC) | temp F | wind direction | speed MPH | gust MPH | rain 1hr in | rain 24hr in | rain mn in | humidity % | barometer mb |
| 20260507124530 | 56 | 46 | 7.0 | 11.0 | 0.00 | 0.12 | 0.03 | 76 | 1010.4 |
| 20260507123038 | 56 | 22 | 6.0 | 14.0 | 0.00 | 0.12 | 0.03 | 76 | 1010.1 |
| 20260507121540 | 56 | 59 | 3.0 | 13.0 | 0.00 | 0.12 | 0.03 | 79 | 1009.9 |
| 20260507120032 | 55 | 80 | 6.0 | 11.0 | 0.00 | 0.12 | 0.03 | 81 | 1009.6 |
| 20260507114533 | 55 | 59 | 5.0 | 11.0 | 0.00 | 0.12 | 0.03 | 82 | 1009.8 |
| 20260507113038 | 55 | 88 | 2.0 | 11.0 | 0.00 | 0.12 | 0.03 | 83 | 1009.6 |
| 20260507111532 | 55 | 360 | 4.0 | 7.0 | 0.00 | 0.12 | 0.03 | 83 | 1009.5 |
| 20260507110038 | 55 | 346 | 4.0 | 10.0 | 0.00 | 0.12 | 0.03 | 84 | 1009.7 |
| 20260507104536 | 55 | 311 | 4.0 | 9.0 | 0.00 | 0.12 | 0.03 | 84 | 1009.4 |
| 20260507103032 | 55 | 46 | 3.0 | 6.0 | 0.00 | 0.12 | 0.03 | 84 | 1009.1 |
| 20260507101539 | 55 | 49 | 3.0 | 9.0 | 0.00 | 0.12 | 0.03 | 83 | 1009.1 |
| 20260507100037 | 55 | 55 | 4.0 | 6.0 | 0.00 | 0.12 | 0.03 | 83 | 1009.1 |
| 20260507094533 | 55 | 333 | 3.0 | 9.0 | 0.00 | 0.12 | 0.03 | 84 | 1009.1 |
| 20260507093041 | 55 | 32 | 4.0 | 8.0 | 0.00 | 0.12 | 0.03 | 85 | 1009.0 |
| 20260507091533 | 55 | 337 | 3.0 | 7.0 | 0.00 | 0.12 | 0.03 | 86 | 1009.2 |
| 20260507090034 | 55 | 346 | 4.0 | 11.0 | 0.00 | 0.12 | 0.03 | 86 | 1008.8 |
| 20260507084536 | 56 | 66 | 5.0 | 10.0 | 0.00 | 0.12 | 0.03 | 88 | 1008.7 |
| 20260507083038 | 56 | 64 | 5.0 | 9.0 | 0.00 | 0.12 | 0.03 | 89 | 1008.8 |
| 20260507081534 | 56 | 115 | 2.0 | 5.0 | 0.00 | 0.12 | 0.03 | 90 | 1009.1 |
| 20260507080047 | 56 | 355 | 4.0 | 10.0 | 0.00 | 0.12 | 0.03 | 89 | 1008.7 |
| 20260507074535 | 56 | 44 | 3.0 | 7.0 | 0.00 | 0.12 | 0.03 | 89 | 1008.3 |
| 20260507073035 | 57 | 48 | 2.0 | 8.0 | 0.00 | 0.12 | 0.03 | 89 | 1008.0 |
| 20260507071557 | 57 | 55 | 3.0 | 9.0 | 0.00 | 0.12 | 0.03 | 88 | 1008.1 |
| 20260507070040 | 57 | 332 | 4.0 | 10.0 | 0.00 | 0.12 | 0.03 | 88 | 1008.3 |
| 20260507064540 | 57 | 348 | 4.0 | 14.0 | 0.00 | 0.12 | 0.03 | 88 | 1008.0 |
| 20260507063041 | 57 | 28 | 6.0 | 19.0 | 0.01 | 0.12 | 0.03 | 89 | 1008.2 |
| 20260507061530 | 58 | 334 | 7.0 | 15.0 | 0.02 | 0.12 | 0.03 | 90 | 1008.2 |
| 20260507060028 | 58 | 21 | 5.0 | 11.0 | 0.02 | 0.12 | 0.03 | 90 | 1007.3 |
| 20260507054528 | 59 | 57 | 4.0 | 11.0 | 0.02 | 0.12 | 0.03 | 90 | 1006.6 |
| 20260507053029 | 59 | 44 | 6.0 | 18.0 | 0.02 | 0.11 | 0.02 | 89 | 1007.3 |
| 20260507051528 | 61 | 324 | 6.0 | 14.0 | 0.01 | 0.09 | 0.01 | 88 | 1008.1 |
| 20260507050029 | 62 | 355 | 5.0 | 11.0 | 0.01 | 0.09 | 0.01 | 87 | 1008.2 |
| 20260507044526 | 64 | 9 | 5.0 | 10.0 | 0.01 | 0.09 | 0.01 | 86 | 1007.7 |
| 20260507043034 | 66 | 319 | 6.0 | 15.0 | 0.00 | 0.09 | 0.00 | 86 | 1008.0 |
| 20260507041529 | 67 | 352 | 2.0 | 6.0 | 0.00 | 0.09 | 0.00 | 85 | 1007.4 |
| 20260507040027 | 67 | 288 | 1.0 | 5.0 | 0.00 | 0.09 | 0.00 | 84 | 1007.6 |
| 20260507034530 | 67 | 339 | 0.0 | 0.0 | 0.00 | 0.09 | 0.09 | 83 | 1007.2 |
| 20260507033028 | 67 | 233 | 0.0 | 0.0 | 0.00 | 0.09 | 0.09 | 83 | 1007.0 |
| 20260507031528 | 67 | 288 | 0.0 | 0.0 | 0.00 | 0.09 | 0.09 | 82 | 1007.3 |
| 20260507030032 | 68 | 335 | 0.0 | 0.0 | 0.00 | 0.09 | 0.09 | 82 | 1007.3 |
| 20260507024529 | 68 | 293 | 0.0 | 0.0 | 0.00 | 0.09 | 0.09 | 82 | 1007.2 |
| 20260507023030 | 68 | 250 | 0.0 | 0.0 | 0.00 | 0.09 | 0.09 | 81 | 1006.7 |
| 20260507021528 | 68 | 165 | 0.0 | 3.0 | 0.00 | 0.09 | 0.09 | 81 | 1006.3 |
| 20260507020033 | 68 | 248 | 0.0 | 0.0 | 0.00 | 0.09 | 0.09 | 81 | 1007.0 |
| 20260507014528 | 68 | 202 | 0.0 | 1.0 | 0.00 | 0.09 | 0.09 | 80 | 1007.0 |
| 20260507013036 | 69 | 244 | 0.0 | 4.0 | 0.00 | 0.09 | 0.09 | 80 | 1007.2 |
| 20260507011537 | 69 | 260 | 3.0 | 5.0 | 0.00 | 0.09 | 0.09 | 80 | 1007.1 |
| 20260507010030 | 69 | 194 | 3.0 | 9.0 | 0.00 | 0.09 | 0.09 | 79 | 1006.4 |
| 20260507004527 | 69 | 239 | 5.0 | 7.0 | 0.00 | 0.09 | 0.09 | 79 | 1006.4 |
| 20260507003029 | 69 | 198 | 5.0 | 10.0 | 0.00 | 0.09 | 0.09 | 79 | 1006.2 |
| 20260507001533 | 70 | 223 | 4.0 | 14.0 | 0.00 | 0.09 | 0.09 | 79 | 1006.5 |
| 20260507000028 | 70 | 192 | 5.0 | 12.0 | 0.00 | 0.09 | 0.09 | 78 | 1006.4 |
| 20260506234540 | 70 | 204 | 7.0 | 12.0 | 0.00 | 0.09 | 0.09 | 77 | 1006.2 |
| 20260506233028 | 71 | 148 | 8.0 | 15.0 | 0.00 | 0.09 | 0.09 | 77 | 1005.9 |
| 20260506231535 | 70 | 175 | 8.0 | 16.0 | 0.00 | 0.09 | 0.09 | 77 | 1006.0 |
| 20260506230030 | 71 | 191 | 5.0 | 15.0 | 0.00 | 0.09 | 0.09 | 76 | 1006.1 |
| 20260506224531 | 71 | 194 | 7.0 | 15.0 | 0.00 | 0.09 | 0.09 | 75 | 1006.2 |
| 20260506223027 | 71 | 180 | 11.0 | 18.0 | 0.00 | 0.09 | 0.09 | 74 | 1006.0 |
| 20260506221529 | 72 | 218 | 13.0 | 26.0 | 0.00 | 0.09 | 0.09 | 73 | 1006.0 |
| 20260506220032 | 72 | 171 | 8.0 | 22.0 | 0.00 | 0.09 | 0.09 | 74 | 1006.0 |
| 20260506214529 | 72 | 246 | 9.0 | 22.0 | 0.00 | 0.09 | 0.09 | 73 | 1005.9 |
| 20260506213030 | 71 | 214 | 8.0 | 20.0 | 0.00 | 0.09 | 0.09 | 74 | 1006.2 |
| 20260506211529 | 71 | 201 | 12.0 | 19.0 | 0.00 | 0.09 | 0.09 | 74 | 1006.0 |
| 20260506210030 | 71 | 234 | 6.0 | 15.0 | 0.00 | 0.09 | 0.09 | 75 | 1006.1 |
| 20260506204534 | 70 | 196 | 11.0 | 21.0 | 0.00 | 0.09 | 0.09 | 75 | 1005.9 |
| 20260506203034 | 70 | 199 | 9.0 | 20.0 | 0.00 | 0.09 | 0.09 | 76 | 1006.1 |
| 20260506201530 | 69 | 211 | 12.0 | 22.0 | 0.00 | 0.09 | 0.09 | 76 | 1006.0 |
| 20260506200044 | 68 | 240 | 10.0 | 18.0 | 0.00 | 0.09 | 0.09 | 78 | 1006.0 |
| 20260506194530 | 67 | 196 | 9.0 | 19.0 | 0.00 | 0.09 | 0.09 | 79 | 1006.0 |
| 20260506193031 | 67 | 220 | 11.0 | 18.0 | 0.00 | 0.09 | 0.09 | 80 | 1006.1 |
| 20260506191533 | 67 | 213 | 11.0 | 19.0 | 0.00 | 0.09 | 0.09 | 80 | 1006.6 |
| 20260506190037 | 67 | 190 | 9.0 | 16.0 | 0.00 | 0.09 | 0.09 | 80 | 1006.7 |
| 20260506184538 | 67 | 157 | 6.0 | 14.0 | 0.00 | 0.09 | 0.09 | 80 | 1007.0 |
| 20260506183034 | 67 | 196 | 10.0 | 22.0 | 0.00 | 0.09 | 0.09 | 79 | 1006.8 |
| 20260506181534 | 67 | 186 | 6.0 | 19.0 | 0.00 | 0.09 | 0.09 | 80 | 1007.6 |
| 20260506180031 | 66 | 186 | 6.0 | 15.0 | 0.00 | 0.09 | 0.09 | 80 | 1007.2 |
| 20260506174533 | 66 | 161 | 8.0 | 15.0 | 0.00 | 0.09 | 0.09 | 81 | 1007.3 |
| 20260506173037 | 65 | 213 | 9.0 | 21.0 | 0.00 | 0.09 | 0.09 | 82 | 1007.5 |
| 20260506171536 | 65 | 215 | 8.0 | 23.0 | 0.00 | 0.09 | 0.09 | 82 | 1007.6 |
| 20260506170035 | 65 | 124 | 11.0 | 23.0 | 0.00 | 0.09 | 0.09 | 83 | 1007.6 |
| 20260506164532 | 65 | 201 | 9.0 | 17.0 | 0.00 | 0.09 | 0.09 | 84 | 1008.0 |
| 20260506163053 | 64 | 194 | 13.0 | 22.0 | 0.00 | 0.09 | 0.09 | 85 | 1007.8 |
| 20260506161530 | 63 | 203 | 14.0 | 25.0 | 0.00 | 0.09 | 0.09 | 86 | 1008.2 |
| 20260506160036 | 63 | 202 | 7.0 | 18.0 | 0.00 | 0.09 | 0.09 | 88 | 1008.2 |
| 20260506154538 | 62 | 184 | 8.0 | 18.0 | 0.02 | 0.09 | 0.09 | 88 | 1008.1 |
| 20260506153033 | 62 | 144 | 8.0 | 18.0 | 0.02 | 0.09 | 0.09 | 88 | 1008.1 |
| 20260506151537 | 62 | 228 | 10.0 | 17.0 | 0.08 | 0.09 | 0.09 | 88 | 1007.9 |
| 20260506150032 | 62 | 203 | 10.0 | 18.0 | 0.08 | 0.09 | 0.09 | 88 | 1008.1 |
| 20260506144529 | 62 | 186 | 13.0 | 24.0 | 0.06 | 0.07 | 0.07 | 87 | 1008.3 |
| 20260506143033 | 63 | 151 | 9.0 | 15.0 | 0.06 | 0.07 | 0.07 | 85 | 1008.7 |
| 20260506141533 | 63 | 197 | 10.0 | 15.0 | 0.01 | 0.01 | 0.01 | 84 | 1008.7 |
| 20260506140036 | 63 | 226 | 6.0 | 12.0 | 0.01 | 0.01 | 0.01 | 83 | 1008.5 |
| 20260506134540 | 63 | 130 | 8.0 | 13.0 | 0.01 | 0.01 | 0.01 | 82 | 1008.2 |
| 20260506133033 | 63 | 235 | 6.0 | 14.0 | 0.01 | 0.01 | 0.01 | 81 | 1008.3 |
| 20260506131537 | 64 | 203 | 9.0 | 17.0 | 0.00 | 0.00 | 0.00 | 78 | 1008.5 |
| 20260506130033 | 64 | 196 | 9.0 | 14.0 | 0.00 | 0.00 | 0.00 | 77 | 1008.6 |